Weather History for Kenai, AK

Change the Weather History Date:

Wednesday, October 2, 2013

  Actual Average Record
Temperature  
Mean Temperature 44 °F -  
Max Temperature 48 °F 47 °F 60 °F (2003)
Min Temperature 39 °F 33 °F 18 °F (1957)
Degree Days  
Heating Degree Days 22    
Moisture  
Dew Point 40 °F    
Average Humidity 90    
Maximum Humidity 100    
Minimum Humidity 76    
Precipitation  
Precipitation 0.01 in - - ()
Sea Level Pressure  
Sea Level Pressure 29.80 in    
Wind  
Wind Speed 9 mph (NNE)    
Max Wind Speed 13 mph    
Max Gust Speed -    
Visibility 10 miles    
Events Rain    
Averages and records for this station are not official NWS values.
T = Trace of Precipitation, MM = Missing Value Source: NWS Daily Summary

Daily Weather History Graph

Daily Weather History Graph

Search for Another Location

Airport:

Trip Planner

Search our weather history database for the weather conditions in past years. The results will help you decide how hot, cold, wet, or windy it might be!

Date:

Astronomy

Oct. 02, 2013 Rise Set
Actual Time 8:14 AM AKDT 7:32 PM AKDT
Civil Twilight 7:32 AM AKDT 8:14 PM AKDT
Nautical Twilight 6:42 AM AKDT 9:03 PM AKDT
Astronomical Twilight 5:50 AM AKDT 9:55 PM AKDT
Moon 5:31 AM AKDT (10/2) 6:32 PM AKDT (10/2)
Length of Visible Light 12h 42m
Length of Day
11h 17m
Waning Crescent, 5% of the Moon is Illuminated
Oct 2
Waning Crescent
Oct 4
New
Oct 11
First Quarter
Oct 18
Full
Oct 26
Last Quarter

Hourly Weather History & Observations

Time (AKDT) Temp. Windchill Dew Point Humidity Pressure Visibility Wind Dir Wind Speed Gust Speed Precip Events Conditions
12:53 AM 41.0 °F 36.4 °F 34.0 °F 76% 29.81 in 10.0 mi NNE 6.9 mph - N/A   Overcast
1:53 AM 41.0 °F 36.4 °F 35.1 °F 79% 29.81 in 10.0 mi NNE 6.9 mph - N/A   Overcast
2:53 AM 39.9 °F 35.8 °F 36.0 °F 86% 29.82 in 10.0 mi North 5.8 mph - 0.00 in Rain Light Rain
3:53 AM 39.9 °F 33.9 °F 37.0 °F 89% 29.81 in 10.0 mi NNE 9.2 mph - 0.00 in   Overcast
4:53 AM 39.9 °F 32.9 °F 37.9 °F 93% 29.80 in 10.0 mi NNE 11.5 mph - 0.01 in   Overcast
5:37 AM 41.0 °F 35.8 °F 39.2 °F 93% 29.79 in 10.0 mi NNE 8.1 mph - N/A   Overcast
5:53 AM 41.0 °F 36.4 °F 39.9 °F 96% 29.80 in 10.0 mi NNE 6.9 mph - N/A   Overcast
6:01 AM 41.0 °F 35.8 °F 39.2 °F 93% 29.79 in 10.0 mi NNE 8.1 mph - N/A   Overcast
6:26 AM 41.0 °F 35.8 °F 39.2 °F 93% 29.79 in 10.0 mi NNE 8.1 mph - N/A   Overcast
6:46 AM 41.0 °F 34.3 °F 39.2 °F 93% 29.79 in 10.0 mi NNE 11.5 mph - N/A   Overcast
6:53 AM 41.0 °F 34.7 °F 39.9 °F 96% 29.80 in 10.0 mi NNE 10.4 mph - N/A   Overcast
7:53 AM 41.0 °F 33.9 °F 39.9 °F 96% 29.80 in 10.0 mi NNE 12.7 mph - 0.00 in   Overcast
8:53 AM 41.0 °F 34.3 °F 41.0 °F 100% 29.81 in 10.0 mi NE 11.5 mph - 0.00 in   Overcast
9:53 AM 41.0 °F 33.9 °F 41.0 °F 100% 29.82 in 10.0 mi NNE 12.7 mph - N/A   Overcast
10:53 AM 42.1 °F 36.1 °F 41.0 °F 96% 29.83 in 10.0 mi NE 10.4 mph - N/A   Overcast
11:53 AM 43.0 °F 37.2 °F 41.0 °F 93% 29.83 in 10.0 mi NNE 10.4 mph - N/A   Overcast
12:53 PM 44.1 °F 38.6 °F 39.9 °F 85% 29.83 in 10.0 mi NE 10.4 mph - N/A   Overcast
1:53 PM 45.0 °F 39.3 °F 39.9 °F 82% 29.83 in 10.0 mi North 11.5 mph - N/A   Overcast
2:11 PM 44.6 °F 40.2 °F 39.2 °F 81% 29.83 in 10.0 mi NNE 8.1 mph - N/A   Overcast
2:53 PM 45.0 °F 40.6 °F 41.0 °F 86% 29.83 in 10.0 mi North 8.1 mph - N/A   Overcast
3:53 PM 48.0 °F - 41.0 °F 77% 29.81 in 10.0 mi North 5.8 mph - N/A   Mostly Cloudy
4:33 PM 48.2 °F - 41.0 °F 76% 29.80 in 10.0 mi North 8.1 mph - N/A   Partly Cloudy
4:53 PM 48.0 °F - 41.0 °F 77% 29.80 in 10.0 mi NNE 6.9 mph - N/A   Scattered Clouds
5:53 PM 46.0 °F 41.9 °F 41.0 °F 83% 29.80 in 10.0 mi North 8.1 mph - N/A   Partly Cloudy
6:53 PM 44.1 °F 38.1 °F 41.0 °F 89% 29.80 in 10.0 mi North 11.5 mph - N/A   Mostly Cloudy
7:53 PM 42.1 °F 36.1 °F 41.0 °F 96% 29.79 in 10.0 mi North 10.4 mph - N/A   Clear
8:53 PM 42.1 °F 36.1 °F 41.0 °F 96% 29.78 in 10.0 mi NNE 10.4 mph - N/A   Partly Cloudy
9:53 PM 41.0 °F 35.8 °F 41.0 °F 100% 29.78 in 10.0 mi NNE 8.1 mph - N/A   Partly Cloudy
10:30 PM 41.0 °F 33.9 °F 41.0 °F 100% 29.77 in 10.0 mi NNE 12.7 mph - N/A   Mostly Cloudy
10:46 PM 41.0 °F 34.7 °F 39.2 °F 93% 29.77 in 10.0 mi NNE 10.4 mph - N/A   Scattered Clouds
10:53 PM 41.0 °F 34.7 °F 39.9 °F 96% 29.77 in 10.0 mi NNE 10.4 mph - N/A   Partly Cloudy
11:53 PM 41.0 °F 34.3 °F 39.9 °F 96% 29.77 in 10.0 mi NNE 11.5 mph - N/A   Clear